Wind_Speed
11 11 11 12 13 12 12 13 13 14 14 13 12 11 9 7 4 2 3 3 3 4 5 3 1 3 3 1 1 3 5 6 6 6 6 5 4 3 3 4 5 5 4 5 6 8 10 11 11 11 11 12 12 13 14 14 14 13 13 12 12 12 14 15 15 14 14 14 15 15 16 16 17 18
12 12 12 12 13 12 13 13 13 13 14 14 13 12 12 10 8 6 3 3 4 5 5 4 3 4 4 2 2 3 5 7 8 7 7 6 5 5 4 4 5 6 5 5 5 7 8 10 12 13 13 14 14 14 14 15 15 15 15 14 14 14 14 14 15 15 14 14 14 15 15 16 16 17
12 12 13 13 13 12 12 13 13 13 14 15 14 13 13 12 11 10 5 2 5 7 8 9 9 7 5 4 3 3 4 6 8 8 7 7 6 5 5 5 6 7 6 6 6 6 7 9 11 12 14 15 15 16 16 16 16 16 16 16 16 16 15 15 16 16 15 15 15 15 15 16 16 17
13 14 14 15 14 13 13 13 13 13 15 15 15 15 15 13 12 11 8 5 8 13 13 13 12 8 6 6 5 4 3 5 7 9 9 8 7 6 6 6 7 7 8 8 7 7 7 8 9 11 13 14 15 16 17 17 17 17 18 17 17 18 18 17 17 18 18 17 17 17 17 17 17 18
14 15 16 16 15 15 14 13 12 13 15 15 15 15 15 15 13 12 11 9 9 15 16 13 12 10 8 7 6 4 3 4 6 8 9 9 9 8 8 8 8 8 9 9 8 8 9 9 9 10 12 13 14 16 16 17 17 18 18 18 18 19 19 19 19 19 20 20 20 20 19 19 19 19
16 17 17 17 16 16 15 14 14 15 15 14 14 14 15 16 15 14 14 11 9 13 16 15 13 11 9 9 7 6 4 4 6 7 8 9 9 9 9 9 10 10 10 10 9 9 10 10 9 9 10 11 12 14 15 16 17 17 18 18 18 19 19 20 20 20 21 21 21 22 22 22 22 22
18 19 19 18 17 17 16 17 16 16 16 14 13 14 14 15 15 15 15 14 12 12 15 15 13 11 10 10 8 8 9 9 9 9 8 8 9 10 10 11 11 11 12 13 11 10 10 10 10 9 9 10 10 11 13 14 16 17 18 19 19 20 21 21 22 22 22 22 22 22 23 23 24 24
21 21 20 19 18 18 19 19 18 16 16 16 15 15 14 14 15 16 15 16 15 14 13 14 14 11 10 11 10 10 11 11 11 11 10 10 11 11 11 11 11 11 13 14 14 12 11 11 11 10 10 10 10 10 11 12 13 15 16 17 19 20 21 21 22 23 23 24 24 24 24 24 25 25
22 22 21 19 18 18 18 18 17 16 17 17 17 17 16 15 16 16 15 15 16 16 16 17 17 15 13 13 12 11 11 11 11 12 12 12 13 13 12 12 12 12 13 15 15 14 12 12 11 11 11 11 11 11 11 11 12 13 14 15 16 17 18 19 20 21 22 23 24 25 25 26 26 26
22 22 21 20 18 17 17 16 16 16 16 16 16 16 17 17 16 15 15 15 15 16 18 18 18 18 17 15 14 12 10 10 11 12 12 12 13 13 13 13 13 13 14 15 16 15 14 13 13 12 12 12 13 13 12 12 13 13 14 14 14 15 15 16 16 17 18 19 21 22 23 25 26 27
22 21 21 21 21 20 19 18 18 18 18 17 17 17 16 15 15 15 14 15 15 16 17 17 17 17 16 15 13 12 11 11 11 11 11 12 12 11 12 13 14 14 15 15 16 16 15 14 14 14 14 13 13 13 14 14 14 14 14 14 14 14 14 14 14 14 15 16 17 18 19 20 22 23
21 20 19 19 20 20 20 20 19 19 18 19 18 17 15 14 14 15 14 14 15 16 16 16 16 15 15 14 13 13 12 11 10 9 9 12 12 11 11 12 13 14 15 15 17 17 17 16 16 16 16 14 13 13 14 14 14 14 14 13 13 13 13 13 14 14 15 16 17 18 18 19 20 21
21 20 19 19 19 20 19 19 18 17 16 15 15 15 13 12 14 15 14 14 15 15 15 16 16 14 14 14 14 13 12 11 11 11 11 13 13 13 13 13 13 14 15 15 17 19 18 18 19 19 18 16 15 14 14 14 14 13 13 13 13 13 13 14 14 15 16 17 18 19 20 21 21 22
22 21 21 20 19 18 18 17 16 15 14 13 13 13 11 11 13 15 14 14 15 14 14 15 15 13 13 15 13 13 13 12 12 13 12 13 14 14 13 13 13 14 15 16 18 20 20 21 21 22 21 19 17 17 16 16 15 14 14 14 14 14 14 14 15 16 17 18 19 20 21 22 22 23
22 22 22 21 18 16 15 14 13 13 13 13 13 13 12 12 13 13 13 14 14 13 13 15 14 12 14 16 14 14 14 13 13 12 12 13 13 12 10 10 11 12 13 16 19 21 22 23 24 25 24 22 20 20 19 17 16 16 16 15 15 14 15 15 15 16 16 17 18 19 20 21 22 22
22 22 21 19 15 13 12 13 12 12 12 14 14 13 13 14 13 11 12 14 15 14 14 15 15 14 14 15 15 13 13 12 11 12 13 14 13 12 10 10 11 11 11 14 19 22 22 23 25 27 27 26 24 23 21 20 19 18 18 17 16 16 15 16 16 15 15 16 17 18 18 19 20 21
20 17 16 15 13 12 10 11 14 14 14 14 13 13 12 12 10 9 9 11 13 14 14 15 15 15 14 14 14 12 11 12 12 14 15 16 15 14 13 14 15 15 13 13 17 21 22 22 25 27 28 27 27 26 24 23 22 21 21 19 18 17 17 16 16 15 14 14 15 16 17 17 18 18
15 13 14 14 13 11 8 9 13 15 13 12 11 11 11 11 9 8 7 8 10 11 13 13 14 14 13 13 13 13 13 14 15 16 17 17 16 17 17 18 20 19 17 16 15 17 20 21 22 26 27 27 28 28 27 26 24 23 22 22 20 18 17 16 15 13 12 12 13 14 15 15 15 15
15 15 14 12 9 7 7 8 10 11 10 10 10 10 10 10 9 8 7 8 9 10 11 11 12 12 12 13 15 16 16 16 17 17 16 16 17 18 20 21 22 21 20 18 13 13 18 19 19 23 25 25 27 28 28 27 26 25 24 23 21 20 18 16 15 13 11 12 12 12 13 12 12 10
15 14 13 10 7 6 6 6 6 6 6 8 10 11 10 10 10 10 9 9 9 9 10 10 11 12 12 13 15 16 16 15 15 15 15 16 17 17 18 20 22 21 18 16 13 15 20 21 21 23 23 23 24 26 27 27 27 27 27 25 23 21 19 17 15 12 11 11 11 10 10 9 8 7
12 11 10 7 3 2 2 4 6 5 4 5 7 9 10 11 11 9 8 7 6 8 10 12 12 13 13 13 15 16 15 14 13 13 15 17 15 13 13 14 17 18 15 13 14 15 18 20 21 22 23 23 24 26 27 28 27 28 28 26 24 22 20 18 16 13 11 10 10 9 7 6 5 4
5 5 3 3 3 3 1 2 4 4 4 4 5 5 7 8 9 8 8 8 7 9 13 15 15 16 15 15 16 17 17 14 12 12 14 15 14 12 11 11 14 17 15 14 13 13 14 18 19 19 18 20 24 26 26 26 26 27 28 27 25 24 21 19 17 13 11 10 9 8 7 6 6 6
9 9 7 5 4 3 3 3 3 4 4 4 4 5 5 6 8 9 11 12 12 11 12 13 14 15 14 13 13 15 15 13 12 12 13 14 14 13 12 11 11 10 10 10 10 11 13 15 17 16 12 11 15 20 22 24 26 27 28 28 27 24 22 19 16 13 11 10 10 9 8 8 8 8
11 9 8 8 6 5 6 5 5 4 4 4 4 4 4 5 6 7 8 9 9 10 10 10 12 13 13 12 12 12 12 12 10 10 11 13 14 15 15 14 12 9 7 8 9 10 11 12 14 17 15 10 9 13 17 20 23 25 26 26 24 22 20 17 14 12 10 10 11 11 10 10 9 9
12 12 13 13 11 10 11 10 10 10 9 9 8 8 8 7 6 6 7 7 7 7 8 8 9 10 11 11 11 10 9 9 8 8 9 10 11 11 10 10 10 9 8 8 8 9 11 13 14 16 17 17 17 18 17 16 18 21 23 23 20 19 18 16 14 12 11 11 12 12 12 12 10 8
17 18 18 17 15 14 14 14 13 13 12 12 12 11 9 8 7 7 7 8 9 10 11 12 13 15 15 15 16 15 13 10 7 6 6 6 7 7 7 7 7 6 6 8 9 9 10 13 13 12 12 14 16 16 12 10 11 14 17 18 18 17 16 15 14 13 12 12 13 13 13 12 11 9
22 22 21 19 18 17 16 15 15 14 14 13 13 12 11 9 9 9 10 11 13 15 16 17 18 19 18 18 18 17 15 14 13 11 10 8 7 6 6 6 6 6 7 8 8 7 7 9 10 10 10 11 10 7 5 5 3 3 7 12 15 16 15 14 13 13 13 14 14 14 14 12 9 8
24 23 22 20 19 18 17 16 16 16 15 14 14 14 14 13 12 14 15 16 17 19 19 19 19 19 18 18 18 16 13 12 12 12 12 10 9 9 8 8 9 9 10 10 9 9 7 7 8 8 8 8 5 2 4 7 9 7 2 2 7 10 13 14 14 13 14 15 15 15 15 13 10 7
24 23 21 20 19 19 18 17 17 17 16 15 16 17 18 18 18 19 20 20 21 21 20 19 18 18 19 18 17 15 13 12 11 11 11 10 10 11 10 9 9 11 13 13 13 11 10 9 8 8 7 6 6 7 8 9 12 12 9 7 4 2 4 8 12 13 13 13 13 13 13 13 10 8
22 21 20 19 19 19 18 18 19 19 19 18 19 20 21 22 23 23 22 23 23 21 19 18 18 18 18 18 18 17 17 16 15 12 11 10 9 10 10 10 12 13 14 14 14 14 13 12 11 9 10 11 12 12 10 10 12 12 11 10 8 6 5 2 5 9 11 12 11 10 10 10 10 8
23 22 21 20 19 19 19 19 20 20 20 21 22 22 22 23 23 22 22 22 21 20 19 19 19 18 18 19 19 20 20 20 18 15 13 12 11 9 8 10 13 14 13 13 14 14 14 14 13 12 12 13 14 14 13 12 13 12 12 12 10 7 7 6 2 2 6 9 9 8 8 8 9 8
24 23 22 21 21 20 20 20 20 20 20 21 21 22 21 21 21 20 20 20 20 20 19 19 20 19 20 20 20 20 20 20 19 18 16 15 15 14 12 13 14 14 13 13 14 13 13 14 15 14 13 13 13 13 13 16 16 14 13 13 12 10 9 8 5 2 1 3 4 4 4 4 5 5
24 23 22 22 21 20 20 20 20 19 19 19 19 19 19 19 19 19 19 20 20 20 20 21 21 21 21 21 21 20 20 20 19 19 18 17 16 16 16 16 16 15 15 15 14 13 12 12 13 13 13 13 12 12 14 17 17 15 14 13 12 12 12 11 9 6 3 1 1 2 3 4 4 2
22 22 21 21 19 19 19 19 19 19 18 19 19 19 19 19 19 19 20 20 19 19 20 21 21 21 22 22 21 20 20 19 18 18 19 18 17 17 18 19 19 19 19 18 18 17 14 11 9 9 9 11 13 15 17 18 17 15 13 11 11 10 9 9 8 8 6 3 4 6 6 5 2 1
22 22 21 20 18 18 19 19 19 18 19 20 20 20 20 20 19 19 19 19 18 18 19 20 20 20 21 21 20 19 19 18 18 18 19 19 18 19 19 19 19 20 20 21 21 21 19 16 12 10 10 11 13 15 17 19 18 17 14 11 10 8 7 5 4 3 3 2 3 4 4 2 1 3
23 22 21 20 19 19 20 19 19 18 19 19 19 19 19 19 18 19 18 18 17 18 18 19 20 20 19 19 19 18 18 18 18 18 18 18 18 17 17 18 18 19 20 20 20 20 21 21 19 16 13 10 8 8 11 15 17 18 17 14 10 7 5 4 3 2 2 3 2 1 1 1 2 3
23 21 21 20 19 19 19 18 18 17 17 17 17 17 17 17 17 17 16 16 16 17 17 18 19 19 19 19 19 18 17 17 16 17 17 17 16 16 16 17 17 18 19 20 20 19 19 20 21 19 14 8 4 4 7 11 16 18 17 16 13 9 5 3 2 2 3 4 3 2 2 3 4 5
21 20 20 19 18 18 18 17 16 16 16 15 15 16 16 16 15 15 15 15 16 16 16 16 17 18 18 18 18 18 17 16 15 15 16 16 15 15 15 15 16 17 18 19 20 20 18 18 19 19 14 7 3 3 6 9 15 18 16 14 13 12 8 5 4 3 3 3 4 4 4 4 5 6
19 18 18 18 18 17 16 15 15 15 15 14 14 14 15 15 15 15 15 16 16 15 15 15 16 16 16 16 16 16 16 16 16 15 15 15 15 15 15 16 16 17 18 20 21 21 20 19 19 17 13 8 6 5 5 7 11 16 17 14 12 12 10 8 7 6 5 4 4 5 6 6 6 6
17 16 16 16 16 15 14 13 13 13 13 13 13 13 14 14 15 15 15 15 15 15 15 14 14 14 14 14 14 13 14 15 15 15 15 15 16 16 17 17 18 18 19 21 22 21 21 20 17 14 11 8 5 4 4 6 9 14 18 18 15 13 12 9 8 8 7 6 6 6 7 7 7 7
15 15 14 14 13 13 12 12 12 12 13 13 13 13 13 14 15 15 15 15 15 14 14 14 13 13 12 12 12 11 11 12 13 14 15 16 16 17 17 18 18 19 19 19 20 20 18 17 14 12 10 8 5 4 6 8 10 13 17 19 19 18 17 15 14 14 13 11 9 9 10 8 8 9
13 13 12 12 12 12 12 11 11 12 12 12 12 13 13 14 14 14 14 14 14 14 13 13 12 11 11 10 10 10 9 9 11 12 13 14 15 17 17 18 18 18 17 17 17 16 15 13 12 11 10 10 11 11 11 10 10 12 15 17 17 18 18 18 18 18 18 17 16 15 13 10 8 9
11 11 12 12 12 12 12 11 11 11 11 11 12 12 13 13 14 15 15 15 14 13 12 11 10 10 10 9 9 9 8 9 9 10 12 14 15 16 17 17 17 17 16 15 14 15 14 14 13 12 12 13 15 15 14 12 13 15 16 15 14 14 14 14 14 15 15 16 17 16 14 10 8 8
10 11 12 12 12 12 11 11 11 10 10 10 11 11 12 14 15 15 15 14 12 11 9 9 9 10 10 9 9 10 11 10 10 11 13 14 15 15 15 16 16 17 16 16 15 16 17 16 16 16 17 17 16 16 15 15 15 16 17 16 16 16 15 14 14 14 14 15 15 13 12 10 9 8
11 12 12 12 12 12 11 10 10 10 10 10 10 11 13 15 16 16 14 13 10 8 8 8 9 10 10 9 10 12 13 13 12 13 14 14 14 14 14 14 15 16 16 16 16 16 17 17 18 18 19 19 18 17 16 15 16 17 18 17 17 17 17 16 16 16 16 16 14 12 10 9 8 8
Wind_Direction
288 293 300 306 307 308 310 309 304 296 290 285 280 274 266 253 245 280 309 294 269 297 315 310 12 26 18 338 218 242 251 240 234 238 236 230 232 254 282 299 298 285 266 251 243 241 240 237 234 229 225 224 224 222 221 221 222 226 232 233 235 234 226 228 238 243 243 241 241 240 240 241 244 245
281 287 294 300 303 306 307 308 302 292 289 287 283 279 275 264 246 233 258 293 278 285 309 315 326 347 353 323 268 264 257 241 227 229 238 233 236 255 263 278 284 275 271 269 259 252 246 242 240 236 231 230 230 229 228 227 225 225 230 233 236 238 233 228 231 237 241 241 241 242 241 242 243 245
275 281 288 295 298 299 302 307 303 291 285 285 286 285 281 276 264 249 236 258 285 289 303 313 319 326 324 305 295 286 264 244 225 223 233 233 238 257 261 266 271 266 269 276 278 271 259 250 244 240 237 235 235 236 235 235 234 231 231 233 236 240 241 237 235 237 240 241 243 244 244 244 244 245
278 283 286 290 291 291 297 304 305 296 288 285 286 289 287 280 269 257 239 228 274 290 301 314 321 322 312 301 303 301 271 242 229 227 234 241 251 262 265 267 266 263 267 275 283 285 279 266 253 246 242 238 236 237 238 238 238 237 238 239 239 241 243 244 242 243 244 244 244 243 243 243 244 245
281 284 287 288 286 286 288 292 295 295 292 289 286 288 286 278 269 258 245 238 271 293 303 318 325 319 304 297 303 307 267 223 229 238 246 254 257 261 265 267 266 264 265 271 278 287 290 281 265 254 248 243 241 239 239 238 237 238 241 244 245 245 247 249 248 248 249 249 248 247 246 246 246 248
277 280 287 290 286 283 282 282 284 287 290 293 291 286 281 276 272 263 255 248 258 284 299 314 324 321 309 301 303 306 289 264 260 257 256 258 258 262 268 272 272 267 263 267 272 280 288 285 272 260 251 247 245 243 243 243 240 239 240 243 246 248 249 251 251 252 252 253 253 252 252 252 252 253
273 275 280 285 283 278 276 278 280 280 282 286 287 283 275 269 267 263 259 255 253 267 288 303 316 322 314 303 301 302 299 293 285 273 263 260 263 272 278 280 281 273 262 261 265 270 278 278 270 261 255 250 247 246 246 246 245 244 243 245 247 249 250 251 252 253 254 254 255 255 255 255 255 254
273 276 276 279 280 277 274 276 278 276 273 273 275 277 274 268 267 266 261 259 257 260 274 289 301 311 306 297 295 298 298 295 288 282 279 277 277 279 281 282 285 278 261 255 257 261 265 269 265 258 256 253 249 247 247 247 248 246 246 247 248 250 251 252 253 253 254 255 255 256 257 258 258 257
272 273 274 277 281 280 277 278 279 277 274 273 272 270 269 270 271 268 265 266 263 258 263 278 292 301 300 295 293 295 296 294 288 282 280 280 280 279 279 279 282 277 260 249 250 253 256 260 259 254 254 253 250 249 248 248 249 247 247 248 248 249 250 252 253 254 254 255 255 255 256 257 259 259
267 267 271 274 275 275 276 277 278 277 275 273 271 268 269 272 273 267 265 268 265 259 260 268 279 290 296 297 295 295 298 298 294 289 284 282 281 281 280 277 276 274 263 250 245 247 251 255 255 252 253 252 250 249 249 249 251 250 249 249 249 249 250 250 252 252 254 255 255 256 256 256 257 257
261 262 267 270 269 268 271 274 276 277 275 273 273 273 272 272 268 263 263 266 265 262 260 263 271 282 291 294 293 295 299 300 301 303 301 298 295 292 288 279 272 270 265 252 241 240 245 249 249 249 251 253 250 247 247 248 250 251 250 250 250 251 251 252 253 252 253 254 255 256 256 256 256 256
256 258 263 267 267 265 267 271 276 278 277 275 274 274 274 269 260 258 263 269 269 266 264 267 273 279 285 288 290 295 300 304 311 319 318 311 309 307 298 285 275 271 268 256 242 237 240 243 245 247 250 253 252 248 246 245 247 248 249 250 251 252 254 255 257 258 258 258 258 258 258 258 258 258
253 256 262 266 266 265 264 266 270 273 273 272 271 272 272 266 258 258 265 269 268 265 264 267 271 274 277 283 289 293 299 307 316 321 318 311 309 310 303 291 280 274 271 263 249 241 241 244 246 247 250 252 253 251 247 245 245 246 247 249 250 253 256 258 260 263 263 263 263 262 262 261 260 260
253 257 262 265 264 263 262 261 263 266 266 264 265 267 267 266 266 266 267 268 264 261 260 263 267 269 274 282 288 292 298 305 310 313 311 307 308 310 303 291 282 275 269 262 254 248 245 246 247 249 250 251 251 250 249 247 247 247 246 248 250 253 257 261 264 266 266 266 266 265 265 264 262 262
255 259 262 262 259 260 262 262 260 260 262 263 266 268 265 264 269 270 268 268 268 266 267 271 274 272 275 282 288 291 297 302 304 304 304 304 308 310 304 290 283 280 271 261 255 254 251 248 249 251 252 252 251 250 249 248 247 247 246 247 251 254 259 263 266 269 270 270 270 269 268 267 266 266
256 260 263 263 265 268 271 275 273 267 263 263 264 268 267 263 265 270 270 271 273 275 278 280 282 280 281 286 292 295 299 299 298 297 297 300 303 302 296 287 285 292 289 268 256 257 259 254 251 253 255 255 253 252 251 248 246 246 245 246 250 255 260 265 268 270 272 272 273 271 270 269 269 268
254 256 259 259 261 262 264 278 284 279 274 271 267 267 269 269 271 276 275 276 277 278 277 277 281 285 289 292 294 295 293 293 293 294 295 298 300 296 291 288 287 291 296 280 261 259 264 261 255 256 258 258 256 254 254 250 246 246 245 245 248 253 257 262 265 268 272 275 276 274 272 271 269 269
253 255 256 253 252 257 263 272 275 274 277 282 277 265 260 262 269 278 280 278 278 278 280 280 282 288 292 293 292 290 290 294 299 299 298 298 298 294 290 289 287 285 286 284 273 267 269 267 261 261 263 261 258 257 256 253 249 247 246 244 246 250 255 259 262 264 269 273 275 275 273 272 270 268
255 259 259 254 255 271 281 268 263 268 277 283 276 267 265 268 276 288 293 285 280 281 286 290 293 296 298 298 297 296 296 298 299 298 297 294 293 293 292 290 288 285 283 281 271 263 269 270 266 267 268 265 261 259 257 255 250 247 245 244 245 248 251 256 259 261 266 270 271 270 268 267 266 263
253 256 256 253 256 276 287 287 287 284 284 288 284 280 288 298 299 298 291 282 283 286 286 290 292 293 296 297 297 298 300 302 302 301 296 292 290 290 289 288 289 289 289 284 267 256 264 268 265 267 271 269 266 263 260 258 253 246 244 243 243 244 246 249 252 254 259 263 262 259 257 256 255 249
246 248 251 244 232 250 288 317 322 308 296 314 310 296 298 305 305 298 281 270 277 292 297 299 297 296 298 298 295 296 299 303 305 299 292 293 293 285 277 280 287 290 291 287 273 259 261 268 267 267 270 271 269 266 264 261 253 245 242 240 240 241 241 241 243 243 245 247 244 239 235 232 228 214
187 171 171 160 131 108 81 355 338 321 310 328 339 328 321 321 322 323 320 316 311 300 297 297 296 297 300 300 297 295 294 296 298 291 287 291 291 278 267 273 285 291 293 292 280 260 261 274 274 270 271 273 269 267 265 261 252 244 240 238 237 238 237 236 237 233 228 225 220 215 207 194 183 171
135 129 116 105 94 77 57 26 354 329 319 326 334 331 331 336 340 341 339 335 329 318 310 309 309 311 316 317 311 302 296 293 290 286 287 289 284 277 273 274 281 290 302 308 293 268 269 282 279 269 267 273 273 269 262 256 250 243 238 235 233 233 233 233 231 224 216 212 204 194 186 177 169 164
130 121 108 95 83 75 68 54 42 33 25 27 25 16 18 15 2 355 353 351 347 344 341 336 330 328 330 330 325 312 303 298 289 283 286 287 285 283 279 274 270 266 276 298 294 275 273 281 278 268 260 254 266 271 263 254 248 240 235 232 229 229 230 226 219 211 205 204 199 189 180 173 167 168
116 104 96 90 85 81 77 71 64 59 56 56 56 51 46 39 25 17 17 17 14 9 5 3 358 355 353 352 352 346 333 320 302 287 285 285 285 286 281 278 275 268 273 293 301 291 282 281 282 275 260 251 257 263 261 254 246 239 234 230 228 230 229 219 206 199 199 201 200 192 182 176 172 175
106 101 94 89 88 84 80 77 72 67 61 58 57 54 49 45 46 50 52 53 51 46 41 37 32 27 24 21 20 20 17 12 1 338 326 320 308 301 302 311 315 311 314 319 317 306 286 279 286 287 271 264 268 270 267 258 244 235 229 226 227 229 226 218 211 206 203 202 201 196 188 183 183 185
107 103 98 94 92 88 84 82 79 74 69 64 62 60 58 57 63 70 72 69 63 55 47 42 37 32 30 28 27 25 21 19 19 15 11 7 359 353 359 8 15 18 12 358 348 338 309 288 294 300 292 289 293 302 326 350 338 238 219 222 226 226 222 222 222 213 205 204 205 203 198 194 193 196
108 104 100 97 94 91 88 86 82 79 74 70 69 67 65 64 67 70 70 67 63 57 50 44 41 38 35 33 31 29 25 23 24 25 26 26 28 32 34 36 40 39 33 28 28 26 14 349 336 333 320 307 310 10 41 35 37 42 66 201 233 236 232 230 226 215 209 209 208 206 205 205 208 218
105 102 101 98 94 91 89 86 83 79 75 73 74 73 70 66 64 64 64 62 60 58 53 49 46 45 44 41 37 34 31 30 30 31 31 33 35 36 34 35 42 44 40 36 34 33 32 27 16 11 15 25 56 76 77 64 55 53 55 58 42 308 254 238 229 222 219 219 217 214 214 216 220 230
102 104 104 100 93 88 88 87 86 82 79 78 76 74 73 68 64 63 63 61 58 54 51 48 45 45 47 49 47 43 40 37 35 30 25 24 27 29 32 38 42 43 39 37 35 34 35 35 32 33 43 54 62 66 68 67 61 56 52 49 46 40 28 353 234 225 229 231 229 226 223 223 229 242
103 105 105 99 92 91 91 90 87 84 80 76 74 72 72 71 69 67 66 65 61 55 50 48 44 43 47 51 49 46 43 41 39 36 34 32 29 25 29 36 37 37 39 41 42 43 44 44 43 44 47 53 58 59 58 57 54 50 47 47 49 43 27 23 32 224 241 242 235 231 232 237 242 248
106 106 105 101 96 95 93 89 85 82 78 76 74 72 71 71 70 69 68 66 62 58 54 51 47 45 46 48 48 47 45 42 40 41 42 42 38 36 38 38 33 32 38 43 43 44 46 46 46 47 51 56 59 56 53 51 46 40 38 41 44 45 39 36 42 54 239 238 236 239 243 237 227 225
112 109 105 101 98 96 92 88 84 81 78 76 74 72 70 69 66 65 63 62 59 57 54 52 50 48 47 47 48 48 47 45 43 44 44 44 41 41 41 39 32 26 28 34 35 34 36 39 43 48 53 55 56 55 55 52 46 39 37 37 38 39 39 36 37 41 46 66 147 139 135 137 151 179
114 110 105 101 100 97 93 88 84 80 78 76 73 72 70 68 66 65 64 62 59 56 54 52 50 49 48 48 48 48 47 46 46 45 45 46 47 46 44 41 38 36 35 36 34 31 29 28 33 42 49 55 61 60 56 50 44 38 38 41 41 38 37 37 44 47 46 62 106 114 111 111 106 37
111 108 105 101 98 96 91 87 83 80 78 78 76 74 71 69 66 64 61 58 54 51 49 48 47 46 46 45 44 44 44 44 44 45 46 49 51 52 49 44 41 41 41 39 37 37 38 36 37 40 44 54 63 58 47 40 37 33 32 36 36 35 35 39 48 56 56 73 108 114 112 100 4 348
106 105 104 99 96 94 91 88 84 81 80 79 77 74 72 69 64 61 58 53 48 46 44 43 42 41 41 40 39 38 38 38 40 42 43 46 49 52 52 49 46 46 46 42 39 41 44 43 42 40 37 40 50 43 33 35 33 28 27 30 28 25 33 40 47 80 90 83 90 113 130 94 21 6
106 105 103 101 99 98 95 92 90 87 85 82 78 76 74 70 64 60 55 49 47 47 45 43 42 42 40 38 36 33 32 33 36 38 39 41 43 47 50 50 48 48 47 44 41 41 43 42 41 37 33 32 30 16 21 32 31 25 24 29 30 26 26 31 48 81 87 84 84 82 74 60 46 35
111 110 108 107 107 106 104 102 99 96 91 87 84 80 77 73 68 62 55 52 53 52 47 45 44 43 40 38 35 33 31 32 34 36 39 41 43 46 48 48 48 47 46 45 43 41 40 39 35 30 26 25 23 0 353 8 22 27 28 29 31 33 34 36 40 45 54 66 68 57 45 35 28 23
114 113 113 114 114 112 110 106 101 97 92 88 83 78 73 69 64 59 56 56 54 50 47 45 43 39 37 37 36 33 33 35 37 40 44 46 47 50 51 50 48 47 45 43 41 39 39 37 30 23 19 13 360 348 345 360 25 38 40 36 35 39 43 45 44 36 30 29 28 22 18 15 9 6
116 114 114 115 116 114 111 106 99 94 90 85 80 75 69 64 59 55 53 50 45 42 40 38 35 31 30 31 31 31 35 41 45 47 50 52 52 53 53 52 49 47 44 41 36 35 36 36 28 22 23 18 351 342 23 48 48 47 47 46 43 43 45 48 47 39 30 18 5 5 12 12 8 6
116 114 113 112 112 109 108 105 100 95 91 86 80 73 65 60 55 50 44 38 32 29 28 26 24 23 22 22 23 26 33 44 51 52 53 56 56 55 53 51 48 45 42 38 33 31 32 34 32 28 28 25 16 26 45 41 29 32 45 55 59 59 60 61 60 57 53 44 35 33 31 22 13 13
118 116 115 112 108 105 104 103 99 95 89 81 74 66 59 53 48 40 33 28 23 20 18 17 16 16 17 20 22 23 33 48 57 58 58 59 60 58 54 52 49 46 43 39 35 32 30 28 28 28 28 36 50 56 49 35 26 31 43 54 62 66 67 65 62 59 56 52 48 44 37 27 20 17
125 123 122 119 113 108 107 104 100 94 87 77 68 57 49 43 37 31 27 24 22 20 18 16 17 20 23 28 30 34 44 54 60 64 66 65 65 62 59 56 53 50 47 44 40 37 35 33 33 38 42 48 55 57 50 44 43 44 43 43 45 51 56 57 56 54 52 51 51 48 42 38 33 20
136 132 128 126 120 114 110 107 103 96 86 75 66 55 47 40 34 29 24 21 20 22 23 26 32 36 39 45 51 56 61 65 70 74 74 71 69 66 62 59 56 52 49 47 44 41 41 42 45 48 49 49 54 57 52 47 47 47 47 44 40 35 32 30 29 30 34 38 41 42 42 43 41 30
144 138 133 128 122 116 113 111 105 98 87 78 70 60 50 41 32 25 22 21 23 26 30 39 46 48 49 58 68 70 71 74 77 77 74 69 67 65 62 60 57 53 49 46 44 43 44 44 45 48 49 51 54 56 53 49 48 47 46 45 41 36 31 26 23 23 25 28 29 30 32 34 33 27
Height
831 831 830 830 830 830 830 829 829 829 828 828 828 828 828 829 830 830 828 825 821 820 820 819 819 818 818 818 817 818 818 818 819 819 819 820 820 820 820 820 821 821 821 821 821 821 821 822 822 823 823 824 825 826 827 828 828 829 829 830 830 831 832 832 833 834 834 835 836 837 838 839 839 840
829 829 829 829 829 829 829 828 828 827 827 827 826 827 827 827 828 828 829 827 821 820 820 819 819 818 818 818 817 818 818 818 818 818 818 819 819 820 820 820 820 820 821 820 820 820 820 820 821 821 822 823 824 824 825 826 827 827 828 829 829 830 830 831 831 832 833 833 834 835 836 836 837 838
828 828 828 827 827 827 827 826 826 825 825 826 826 826 826 826 826 826 828 827 823 820 820 819 818 818 817 817 817 817 817 817 817 817 818 818 818 819 819 819 819 820 820 820 820 819 819 819 819 820 820 821 822 823 824 824 825 826 826 827 828 828 829 830 830 831 831 832 832 833 833 834 835 835
826 826 826 826 826 826 825 825 825 824 824 825 825 825 825 825 826 825 826 827 823 820 820 819 818 818 817 817 817 817 817 817 817 817 817 817 818 818 818 819 819 819 819 819 819 819 818 818 818 818 819 819 820 821 822 823 823 824 825 825 826 827 827 828 828 829 830 830 831 831 832 832 833 833
825 824 824 824 824 824 824 824 823 823 823 824 824 824 824 824 824 824 824 825 823 820 820 819 818 818 817 817 817 817 817 817 817 816 816 817 817 817 817 818 818 818 818 819 818 818 818 817 817 817 818 818 818 819 820 821 822 822 823 823 824 825 825 826 826 827 827 828 828 829 829 830 830 830
823 823 822 823 823 823 823 823 823 822 822 822 822 822 822 822 823 823 823 823 822 820 819 819 818 818 818 817 817 817 817 817 816 816 816 816 816 816 816 816 816 817 817 818 818 817 817 817 817 816 817 817 817 818 818 819 820 820 821 822 822 823 824 824 825 825 825 826 826 826 827 827 827 828
821 821 821 821 821 821 821 821 821 821 820 820 820 820 820 820 820 821 821 821 821 820 818 817 817 817 817 817 817 817 817 817 816 816 815 815 815 815 815 815 815 815 816 816 816 816 816 816 816 816 816 816 816 817 817 817 818 818 819 819 820 821 821 822 822 823 823 824 824 824 825 825 825 825
820 819 819 819 819 819 819 819 819 819 818 818 817 817 817 817 817 818 818 819 819 819 818 817 816 816 816 816 816 816 816 816 816 815 815 814 814 814 814 814 814 814 814 815 815 815 815 815 815 815 815 815 815 816 816 816 816 817 817 817 817 818 818 819 820 820 821 821 822 822 823 823 823 823
818 817 817 817 817 817 817 817 818 817 817 817 816 816 816 816 816 816 816 817 817 818 818 817 816 816 816 815 815 815 815 815 815 814 814 813 813 812 812 812 812 812 813 813 813 813 813 814 814 814 814 814 814 815 815 815 815 815 815 815 815 815 816 816 816 817 818 818 819 819 820 820 821 821
815 815 815 815 815 815 815 815 815 815 815 815 815 815 816 816 816 815 815 816 816 816 816 816 816 816 816 816 815 815 814 814 814 813 812 812 811 811 811 811 811 810 810 811 811 811 812 812 812 813 813 813 813 813 813 814 814 814 814 813 813 813 813 814 814 814 815 815 816 816 816 817 818 818
813 813 813 813 813 813 812 812 813 813 813 813 813 813 813 814 814 814 815 815 815 815 815 815 815 815 815 815 814 814 814 814 813 812 811 810 810 810 809 809 809 809 809 809 809 809 810 810 811 811 811 812 812 812 812 812 812 812 812 812 812 812 812 812 812 812 812 812 813 813 813 814 814 814
811 811 811 811 810 810 810 810 810 810 810 810 810 811 811 811 812 813 813 813 813 813 813 813 813 813 813 813 813 813 813 813 812 811 810 809 809 809 808 808 808 807 807 807 807 808 808 809 809 809 810 810 810 810 810 810 810 810 810 810 810 811 811 811 811 811 811 810 810 810 811 811 811 811
808 808 809 809 808 808 808 808 808 808 809 809 809 809 809 810 810 811 811 811 811 811 811 811 811 812 812 812 812 812 812 812 811 811 810 809 808 808 807 807 807 806 806 806 806 806 806 807 807 807 808 808 808 808 809 809 809 809 809 809 809 809 809 809 809 809 809 809 808 808 808 808 808 808
806 806 807 807 807 807 807 807 808 807 807 807 807 808 808 809 809 809 810 810 810 810 810 810 811 811 811 811 811 811 811 811 811 810 810 809 808 807 806 805 805 805 804 804 804 804 805 805 805 805 805 806 806 806 807 807 808 808 808 808 808 808 808 807 807 807 807 807 806 806 806 805 805 805
803 804 805 805 806 807 807 807 807 806 806 806 806 807 807 808 808 808 808 809 809 809 809 809 810 810 810 810 810 810 810 810 810 810 809 809 808 807 806 805 804 803 803 803 802 802 802 802 802 802 803 803 804 804 804 805 806 806 806 806 806 806 806 806 806 805 805 805 804 804 803 803 803 802
802 803 804 806 808 809 810 809 808 806 806 806 806 806 806 807 808 808 808 808 808 809 809 808 808 809 809 809 809 809 809 809 809 809 809 808 807 806 806 805 804 803 803 802 801 800 800 800 800 800 800 801 801 802 802 803 803 803 804 804 804 804 804 804 804 803 803 803 802 802 802 801 801 800
802 803 805 806 808 809 809 809 808 807 806 805 806 806 806 807 808 808 808 808 808 809 809 808 807 808 808 808 808 808 808 808 808 807 807 807 806 805 805 804 803 803 803 802 801 799 798 799 798 797 798 799 799 800 800 801 801 801 801 802 802 802 802 802 802 801 801 801 800 800 800 799 799 798
803 804 805 805 806 807 806 806 807 806 805 805 805 806 806 806 808 808 808 808 809 809 809 807 807 807 808 808 807 807 807 807 806 806 805 805 804 804 803 802 801 801 802 802 801 799 797 798 797 795 796 797 797 797 798 799 799 799 799 800 800 800 800 800 800 799 799 799 798 798 798 797 797 796
802 803 804 805 806 806 805 805 805 805 805 805 805 805 805 805 806 806 806 807 808 808 808 807 806 807 807 807 806 806 806 805 805 805 804 803 803 802 800 799 799 799 799 800 801 799 797 796 795 793 794 795 794 794 795 796 797 797 797 797 798 798 798 798 798 798 797 797 797 796 796 796 796 795
801 802 803 804 804 804 804 804 804 804 804 804 804 804 805 805 806 805 805 805 806 806 806 805 806 806 806 806 805 805 804 804 804 803 802 802 801 800 799 797 796 797 797 797 798 796 794 794 794 792 792 792 791 791 792 793 794 794 794 795 795 795 796 796 796 796 796 795 795 795 795 795 795 795
800 802 803 803 803 803 803 803 803 803 803 803 803 804 804 805 805 804 804 804 804 805 804 805 805 805 805 805 804 804 803 803 803 802 801 800 800 799 798 796 795 795 795 796 796 794 792 792 793 791 790 790 789 788 788 788 789 790 791 792 793 793 794 794 794 794 794 794 795 795 795 795 795 795
800 802 804 803 803 803 802 803 803 803 803 803 803 804 804 805 805 803 803 803 803 803 804 804 804 804 804 804 803 802 802 802 802 801 800 799 799 798 797 795 794 793 793 794 794 793 792 791 791 790 789 787 785 785 785 785 786 787 788 789 790 791 792 792 792 792 792 793 794 794 795 795 795 795
800 802 804 804 803 803 803 803 803 802 802 802 802 803 803 804 804 804 803 803 803 803 803 803 803 802 803 802 802 801 800 800 800 800 799 798 798 796 796 795 794 793 792 792 793 792 790 790 790 790 789 786 783 782 782 782 781 782 784 785 787 788 789 790 791 791 791 793 794 794 795 795 795 796
800 801 802 803 803 803 803 803 803 803 803 802 802 803 803 803 804 804 804 804 804 804 804 803 803 802 801 801 801 800 799 799 799 798 797 797 796 795 794 794 793 793 792 791 791 790 789 789 789 789 788 786 782 780 779 779 778 778 780 782 783 786 788 789 789 789 790 792 793 794 794 795 796 797
799 800 801 802 803 803 803 804 805 805 805 804 804 804 804 804 804 804 804 804 804 804 804 803 803 802 801 801 800 800 799 798 798 797 796 796 795 794 793 792 792 791 791 790 790 790 789 788 787 786 786 784 781 779 778 777 776 776 778 780 781 784 786 787 787 788 789 791 792 793 794 795 796 797
800 801 802 803 804 804 805 806 806 807 807 807 806 806 806 806 805 805 805 804 804 804 804 804 803 802 802 801 800 800 799 799 798 797 796 795 794 794 793 792 791 791 790 789 789 789 788 787 786 786 784 782 780 779 779 777 775 775 776 778 779 782 784 785 786 787 788 790 791 793 794 795 795 796
802 803 804 805 806 807 807 808 808 808 809 810 809 808 808 808 807 806 805 805 805 805 805 805 804 803 803 802 802 801 801 800 799 798 797 796 795 794 793 793 793 791 790 789 789 789 788 787 786 785 784 782 781 780 780 779 777 776 776 777 778 780 783 785 786 787 788 789 790 792 794 795 795 796
803 805 806 807 808 809 809 809 810 810 811 812 811 810 809 809 809 807 806 806 806 806 806 807 806 805 804 804 803 803 803 802 801 800 799 798 796 795 794 794 793 792 791 790 789 788 787 787 786 785 784 782 781 781 782 782 781 779 778 778 779 781 782 784 785 786 787 788 789 790 792 794 795 796
805 807 808 810 811 811 811 812 812 813 813 814 813 811 811 810 809 808 808 808 808 808 809 810 809 808 806 806 806 805 805 804 802 801 800 799 798 797 796 796 794 793 793 791 790 789 788 787 786 786 784 783 782 782 783 783 783 783 781 781 781 782 782 783 784 785 786 787 788 789 791 794 795 796
807 808 810 811 812 813 814 814 815 816 816 816 815 813 812 811 810 810 810 811 811 812 812 813 812 810 809 808 808 807 806 805 803 802 801 800 799 799 798 797 796 795 794 793 791 790 789 788 787 786 785 784 784 784 785 785 785 784 783 783 783 783 783 783 784 785 786 787 788 789 791 793 794 795
809 810 811 813 814 815 816 817 817 818 818 817 816 815 814 813 813 813 813 814 814 815 815 815 814 813 812 810 809 808 807 807 806 805 803 802 801 800 799 798 797 796 795 794 793 792 790 789 788 787 786 785 785 786 786 786 785 785 785 784 784 784 784 784 784 785 785 786 788 788 789 791 793 794
810 812 813 814 815 817 817 818 819 819 820 819 819 818 818 817 817 816 816 816 816 816 817 816 816 815 814 812 811 810 810 810 809 808 806 805 804 803 801 800 799 798 797 795 794 793 792 791 790 789 788 787 787 788 788 787 786 786 786 786 785 785 785 785 785 785 786 786 787 788 789 790 792 793
812 813 814 815 817 818 820 821 821 821 822 821 821 821 820 820 819 818 818 818 818 818 817 817 817 816 815 814 813 813 812 812 812 810 808 807 806 805 804 802 801 800 799 797 796 795 794 793 792 791 791 790 789 789 789 788 788 788 787 787 787 786 786 786 786 786 787 787 787 788 789 790 792 793
814 815 816 818 819 820 822 822 823 823 824 823 823 823 823 822 821 821 821 820 820 820 819 818 818 817 816 816 815 814 814 814 813 812 810 809 808 807 806 805 804 803 801 800 798 797 796 795 794 793 793 792 791 790 790 790 790 789 789 788 788 787 788 788 787 787 788 789 789 790 791 792 792 793
816 817 819 820 822 822 823 824 825 825 825 825 826 825 825 825 824 824 823 823 822 821 821 820 820 819 818 818 817 816 816 815 814 813 812 811 810 809 808 807 806 805 804 802 801 799 798 797 796 795 795 794 793 793 793 793 793 792 791 790 789 789 789 788 788 789 789 790 791 791 792 793 793 793
819 820 821 822 823 824 825 826 827 827 827 827 827 827 827 827 826 826 826 825 824 823 823 822 822 821 821 820 819 818 817 816 815 814 813 812 812 811 810 809 809 808 806 805 804 802 800 799 798 797 797 796 796 796 796 796 796 795 793 792 791 790 790 790 790 790 790 791 791 792 793 793 793 793
821 822 823 824 825 826 827 828 828 829 829 829 829 829 828 828 828 828 828 827 826 825 825 824 824 823 823 822 821 820 819 818 817 816 815 814 813 812 811 811 810 809 808 807 806 804 803 801 800 800 800 799 799 800 799 798 798 797 795 794 793 791 791 791 791 791 792 792 792 793 793 793 793 793
824 824 825 826 827 828 829 829 830 830 830 831 831 831 831 830 830 830 829 828 828 827 827 826 825 825 824 823 822 822 821 819 818 817 816 815 814 813 812 812 811 810 809 808 807 806 804 803 802 802 802 802 802 802 801 800 799 798 797 795 794 793 792 792 792 792 793 793 793 793 793 793 793 793
826 826 827 828 829 829 830 831 831 831 832 832 832 832 832 832 831 831 830 830 829 829 828 827 827 826 826 825 824 823 822 821 820 818 817 817 816 815 814 813 812 812 811 809 808 807 806 805 804 804 803 803 803 802 802 801 801 801 799 797 795 794 793 793 793 793 793 793 793 793 793 793 793 792
827 828 829 829 830 831 831 832 832 833 833 833 833 833 833 833 832 832 832 831 831 830 829 829 828 827 827 826 825 824 823 822 821 820 819 818 817 817 816 815 814 813 812 811 810 809 808 807 806 806 805 804 803 802 802 802 802 801 800 798 797 796 795 794 794 794 793 793 793 793 793 793 792 792
829 829 830 831 831 832 833 833 834 834 834 834 834 834 834 834 834 833 833 832 832 831 830 830 829 828 828 827 826 825 824 823 822 821 820 820 819 818 818 816 816 815 814 813 812 812 811 810 809 808 806 805 803 802 802 803 803 802 801 800 799 798 797 796 795 795 795 794 793 793 793 792 792 792
830 831 832 832 833 834 834 835 835 835 836 836 836 836 836 835 835 835 834 834 833 832 832 831 830 829 828 828 827 826 825 824 823 823 822 821 820 820 819 818 817 817 816 815 815 814 813 812 810 809 807 805 804 804 804 805 805 803 802 801 800 800 799 798 797 796 796 795 794 794 793 793 793 792
832 832 833 834 835 835 836 837 837 837 837 837 838 837 837 837 836 836 835 834 834 833 832 831 831 830 829 829 828 827 826 825 825 824 823 822 822 821 820 820 819 819 818 817 817 815 814 813 811 810 808 807 806 806 806 806 806 804 803 802 801 800 800 799 799 798 797 796 796 795 795 795 794 794
834 834 835 836 836 837 837 838 838 839 839 839 839 839 838 838 838 837 836 835 834 833 833 832 831 831 830 829 829 828 827 827 826 825 825 824 823 823 822 821 821 820 819 818 817 816 815 814 813 811 810 809 809 808 808 808 807 806 805 804 803 802 801 800 799 798 798 797 797 797 796 796 795 795
835 836 836 837 838 838 839 839 839 839 840 840 840 840 839 839 838 838 837 836 835 834 834 833 832 832 831 830 830 829 829 828 827 827 826 826 825 824 824 823 822 821 820 819 818 817 816 815 814 813 812 812 811 810 810 810 809 808 807 806 805 804 803 801 800 799 799 798 798 797 797 796 795 795